Caldwell, NJ

1:36 AM EDT on May 26, 2017 (GMT -0400)
Essex County

Weather History for KCDW - May, 2013

Change the Weather History Date:

Tuesday, May 28, 2013

  Actual Average Record
Temperature  
Mean Temperature 57 °F -  
Max Temperature 64 °F 74 °F 93 °F (2016)
Min Temperature 50 °F 50 °F 39 °F (1961)
Degree Days  
Heating Degree Days 8    
Growing Degree Days 7 (Base 50)    
Moisture  
Dew Point 54 °F    
Average Humidity 91    
Maximum Humidity 100    
Minimum Humidity 58    
Precipitation  
Precipitation 0.55 in - - ()
Sea Level Pressure  
Sea Level Pressure 30.19 in    
Wind  
Wind Speed 1 mph (ENE)    
Max Wind Speed 6 mph    
Max Gust Speed -    
Visibility 4 miles    
Events Fog , Rain    
Averages and records for this station are not official NWS values.
T = Trace of Precipitation, MM = Missing Value Source: NWS Daily Summary

Daily Weather History Graph

Daily Weather History Graph

Search for Another Location

Airport or City:

Trip Planner

Search our weather history database for the weather conditions in past years. The results will help you decide how hot, cold, wet, or windy it might be!

Date:

Astronomy

May. 28, 2013 Rise Set
Actual Time 5:29 AM EDT 8:19 PM EDT
Civil Twilight 4:57 AM EDT 8:52 PM EDT
Nautical Twilight 4:16 AM EDT 9:33 PM EDT
Astronomical Twilight 3:29 AM EDT 10:20 PM EDT
Moon 11:40 PM EDT (5/28) 9:15 AM EDT (5/28)
Length of Visible Light 15h 55m
Length of Day
14h 50m
Waning Gibbous, 83% of the Moon is Illuminated
May 28
Waning Gibbous
May 31
Last Quarter
Jun 8
New
Jun 16
First Quarter
Jun 23
Full

Hourly Weather History & Observations

Time (EDT) Temp. Dew Point Humidity Pressure Visibility Wind Dir Wind Speed Gust Speed Precip Events Conditions
12:53 AM 57.0 °F 43.0 °F 59% 30.21 in 10.0 mi Calm Calm - N/A   Clear
1:53 AM 55.0 °F 44.1 °F 67% 30.22 in 10.0 mi Calm Calm - N/A   Clear
2:53 AM 53.1 °F 46.0 °F 77% 30.21 in 10.0 mi Calm Calm - N/A   Clear
3:53 AM 52.0 °F 46.9 °F 83% 30.21 in 10.0 mi Calm Calm - N/A   Clear
4:53 AM 50.0 °F 46.0 °F 86% 30.21 in 10.0 mi Calm Calm - N/A   Clear
5:53 AM 50.0 °F 46.0 °F 86% 30.22 in 10.0 mi Calm Calm - N/A   Clear
6:53 AM 52.0 °F 46.9 °F 83% 30.23 in 10.0 mi Calm Calm - N/A   Clear
7:53 AM 55.9 °F 46.9 °F 72% 30.23 in 10.0 mi North - - N/A   Clear
8:53 AM 61.0 °F 46.9 °F 60% 30.23 in 10.0 mi Calm Calm - N/A   Clear
9:53 AM 63.0 °F 48.0 °F 58% 30.24 in 10.0 mi Calm Calm - N/A   Partly Cloudy
10:53 AM 64.0 °F 50.0 °F 60% 30.24 in 10.0 mi Variable 4.6 mph - 0.00 in Rain Light Rain
11:53 AM 61.0 °F 54.0 °F 78% 30.25 in 8.0 mi Calm Calm - 0.01 in Rain Light Rain
12:53 PM 59.0 °F 55.0 °F 87% 30.23 in 4.0 mi Calm Calm - 0.05 in Rain Light Rain
1:53 PM 59.0 °F 55.0 °F 87% 30.21 in 6.0 mi ESE 3.5 mph - 0.02 in Rain Light Rain
2:41 PM 57.2 °F 55.4 °F 94% 30.20 in 1.8 mi Calm Calm - 0.06 in Rain Rain
2:53 PM 57.0 °F 55.0 °F 93% 30.22 in 1.2 mi Calm Calm - 0.13 in Rain Heavy Rain
3:16 PM 55.4 °F 53.6 °F 94% 30.19 in 2.5 mi Variable 3.5 mph - 0.07 in Rain Light Rain
3:23 PM 55.4 °F 53.6 °F 94% 30.19 in 3.0 mi ESE 5.8 mph - 0.08 in Rain Light Rain
3:33 PM 55.4 °F 53.6 °F 94% 30.19 in 2.5 mi Calm Calm - 0.11 in Rain Rain
3:45 PM 55.4 °F 53.6 °F 94% 30.21 in 1.8 mi Calm Calm - 0.16 in Rain Rain
3:53 PM 55.9 °F 55.0 °F 97% 30.22 in 1.5 mi Calm Calm - 0.19 in Rain Rain
4:04 PM 55.4 °F 55.4 °F 100% 30.19 in 2.0 mi East 3.5 mph - 0.04 in Rain Rain
4:16 PM 55.4 °F 55.4 °F 100% 30.20 in 3.0 mi Calm Calm - 0.05 in Rain Light Rain
4:53 PM 55.9 °F 55.0 °F 97% 30.20 in 3.0 mi ENE 4.6 mph - 0.08 in Rain Light Rain
5:12 PM 55.4 °F 55.4 °F 100% 30.18 in 2.5 mi Variable 3.5 mph - 0.00 in   Overcast
5:37 PM 55.4 °F 55.4 °F 100% 30.17 in 2.0 mi East 5.8 mph - 0.00 in Rain Light Rain
5:53 PM 55.9 °F 55.9 °F 100% 30.19 in 2.0 mi Variable 4.6 mph - 0.02 in Rain Light Rain
6:01 PM 55.4 °F 55.4 °F 100% 30.16 in 1.2 mi East 5.8 mph - 0.02 in Rain Rain
6:17 PM 55.4 °F 55.4 °F 100% 30.16 in 3.0 mi ENE 5.8 mph - 0.03 in Rain Light Rain
6:30 PM 55.4 °F 55.4 °F 100% 30.16 in 2.5 mi NE 4.6 mph - 0.03 in Rain Light Rain
6:53 PM 55.9 °F 55.9 °F 100% 30.18 in 2.5 mi Calm Calm - 0.03 in   Overcast
7:27 PM 57.2 °F 55.4 °F 94% 30.15 in 1.8 mi NE 3.5 mph - 0.02 in Rain Light Rain
7:34 PM 57.2 °F 55.4 °F 94% 30.15 in 2.0 mi NE 3.5 mph - 0.02 in Rain Light Rain
7:53 PM 57.0 °F 55.9 °F 96% 30.17 in 2.0 mi NE 3.5 mph - 0.02 in   Overcast
8:09 PM 57.2 °F 57.2 °F 100% 30.15 in 1.5 mi ENE 3.5 mph - N/A   Overcast
8:35 PM 57.2 °F 57.2 °F 100% 30.14 in 2.0 mi Calm Calm - N/A   Overcast
8:53 PM 57.0 °F 57.0 °F 100% 30.16 in 2.0 mi Calm Calm - N/A   Overcast
9:06 PM 57.2 °F 57.2 °F 100% 30.15 in 1.8 mi Calm Calm - 0.00 in Rain Light Rain
9:53 PM 57.0 °F 57.0 °F 100% 30.17 in 1.0 mi NE 3.5 mph - 0.00 in   Overcast
10:00 PM 57.2 °F 57.2 °F 100% 30.14 in 0.8 mi ENE 3.5 mph - N/A   Overcast
10:39 PM 57.2 °F 57.2 °F 100% 30.14 in 0.5 mi NE 3.5 mph - N/A Fog Fog
10:53 PM 57.0 °F 57.0 °F 100% 30.16 in 0.5 mi Calm Calm - N/A Fog Fog
11:19 PM 57.2 °F 57.2 °F 100% 30.14 in 0.2 mi Calm Calm - N/A Fog Fog
11:33 PM 57.2 °F 57.2 °F 100% 30.14 in 0.5 mi Calm Calm - 0.00 in Fog Fog
11:48 PM 57.2 °F 57.2 °F 100% 30.14 in 0.2 mi Calm Calm - 0.00 in Fog Fog
11:53 PM 57.0 °F 57.0 °F 100% 30.16 in 0.2 mi Calm Calm - 0.00 in Fog Fog